This demonstration page uses our WeatherBlox Daily Observations layout. Learn more.

Left ArrowRight Arrow

Hourly Observations for October 31, 2022

Temp ( °F °C ) Dew Point ( °F °C ) Humidity (%) Winds ( mph kmh ) Pressure ( in mb ) Visibility ( mi km ) Precip ( " mm )
12:53 am 00:53 Clear 53 11.7 33 0.6 46 46 NNE 3 6 30.00 1016 10 16 0.00 0.00
1:53 am 01:53 Clear 54 12.2 34 1.1 47 47 N 3 6 30.00 1016 10 16 0.00 0.00
2:53 am 02:53 Clear 50 10 35 1.7 56 56 Calm 29.99 1016 10 16 0.00 0.00
3:53 am 03:53 Clear 48 8.9 35 1.7 61 61 Calm 29.98 1015 10 16 0.00 0.00
4:53 am 04:53 Clear 47 8.3 32 0 56 56 Calm 29.98 1015 10 16 0.00 0.00
5:53 am 05:53 Clear 47 8.3 34 1.1 60 60 Calm 29.98 1015 10 16 0.00 0.00
6:53 am 06:53 Clear 46 7.8 34 1.1 63 63 Calm 29.98 1015 10 16 0.00 0.00
7:53 am 07:53 Sunny 45 7.2 35 1.7 68 68 Calm 29.98 1015 10 16 0.00 0.00
8:53 am 08:53 Sunny 50 10 35 1.7 56 56 Calm 29.99 1016 10 16 0.00 0.00
9:53 am 09:53 Sunny 60 15.6 37 2.8 42 42 Calm 29.98 1015 10 16 0.00 0.00
10:53 am 10:53 Sunny 65 18.3 38 3.3 37 37 Calm 29.95 1014 10 16 0.00 0.00
11:53 am 11:53 Sunny 69 20.6 38 3.3 32 32 Calm 29.93 1014 10 16 0.00 0.00
12:53 pm 12:53 Sunny 72 22.2 38 3.3 29 29 W 5 7 29.90 1012 10 16 0.00 0.00
1:53 pm 13:53 Sunny 74 23.3 38 3.3 27 27 SSW 6 9 29.85 1011 10 16 0.00 0.00
2:53 pm 14:53 Sunny 75 23.9 38 3.3 26 26 SSW 7 11 29.81 1010 10 16 0.00 0.00
3:53 pm 15:53 Sunny 75 23.9 38 3.3 26 26 VRB 7 11 29.79 1009 10 16 0.00 0.00
4:53 pm 16:53 Sunny 75 23.9 37 2.8 25 25 S 10 17 29.78 1008 10 16 0.00 0.00
5:53 pm 17:53 Sunny 71 21.7 38 3.3 30 30 SSE 10 17 29.76 1008 10 16 0.00 0.00
6:53 pm 18:53 Clear 65 18.3 39 3.9 38 38 SSE 6 9 29.77 1008 10 16 0.00 0.00
7:53 pm 19:53 Clear 62 16.7 39 3.9 42 42 SE 8 13 29.76 1008 10 16 0.00 0.00
8:53 pm 20:53 Clear 60 15.6 41 5 49 49 Calm 29.76 1008 10 16 0.00 0.00
9:53 pm 21:53 Clear 58 14.4 41 5 53 53 Calm 29.76 1008 10 16 0.00 0.00
10:53 pm 22:53 Clear 54 12.2 40 4.4 59 59 Calm 29.76 1008 10 16 0.00 0.00
11:53 pm 23:53 Clear 52 11.1 37 2.8 57 57 Calm 29.75 1007 10 16 0.00 0.00

Powered by AerisWeather